星链-30132 (STARLINK-30132 )

导读 | 豆包AI

STARLINK-30132是美国太空探索技术公司Starlink星链互联网卫星星座的一员,于2023年5月19日发射入轨。星链项目旨在为全球提供低成本高速卫星互联网服务,该卫星承担星座组网任务,依托低轨部署降低通信延迟,提升全球偏远、基础设施薄弱区域的网络覆盖能力。

基本信息
目录编号:
56703
目录名称:
STARLINK-30132
国际标识:
2023-067R
轨道中心:
EARTH
卫星名称:
星链-30132
卫星全名:
星链-30132 (STARLINK-30132 )
卫星状态:
在轨 (已飞行1031 天)
发射日期:
2023-05-19 UTC
国别 :
美国 (US)
星等 :
--
轨道信息
数据来源 国际轨道数据
星历时间: 2026-03-15T22:00:02+0800
7小时前
查看轨道信息
半长轴: 6863.735km
偏心率: 0.0001656
轨道倾角: 42.999°
近地点辐角 268.925°
升交点赤经 240.476°
平近点角 306.828°
近地点: 484.461km
远地点: 486.735km
周期: 94.319分钟
每日圈数: 15.267293
详细信息
固有亮度:
5
最大亮度:
0.3
卫星平台:
Starlink v2.0 mini
覆盖范围:
全球
运营商:
太空探索技术公司
运营商所在国:
美国
制造商(研发单位):
太空探索技术公司
制造商所在国:
美国
使用方式:
暂无
卫星简介
星链(Starlink)计划是由太空探索技术公司(SpaceX)提出的一个巨型低轨卫星互联网星座项目,计划在2019年至2024年间在太空搭建由约1.2万颗卫星组成的“星链”网络,其中1584颗将部署在地球上空550千米处的近地轨道,并从2020年开始工作。该卫星仍在工作。
2D轨道图
3D轨道图
轨道高度分析图
轨道倾角分析图
轨道综合分析图
查看轨道综合分析图